This is the latest recevied weather packets stored in our database for station/object M0HPP-13. If no packets are shown the sender has not sent any weather packets the latest 10 day(s).
| Time | Temp. | Humidity | Pressure | Rain* | Wind** | Luminosity | Snow |
|---|---|---|---|---|---|---|---|
| 1788029286 | 12.78° C | 99% | 1004.3 hPa | 0 mm | - | 3 W/m² | - |
| 1788028686 | 13.33° C | 99% | 1004.2 hPa | 0 mm | - | 3 W/m² | - |
| 1788028086 | 13.33° C | 99% | 1004.2 hPa | 0 mm | - | 3 W/m² | - |
| 1788027486 | 13.33° C | 99% | 1004.2 hPa | 0 mm | - | 6 W/m² | - |
| 1788026886 | 13.33° C | 99% | 1004.1 hPa | 0 mm | - | 12 W/m² | - |
| 1788026286 | 13.33° C | 99% | 1004.1 hPa | 0 mm | - | 23 W/m² | - |
| 1788025686 | 13.33° C | 99% | 1004 hPa | 0 mm | - | 36 W/m² | - |
| 1788025086 | 13.33° C | 99% | 1004 hPa | 0 mm | - | 35 W/m² | - |
| 1788024486 | 13.33° C | 99% | 1004.1 hPa | 0 mm | - | 27 W/m² | - |
| 1788023886 | 13.33° C | 99% | 1004.1 hPa | 0 mm | - | 25 W/m² | - |
| 1788023286 | 13.33° C | 99% | 1004.1 hPa | 0 mm | - | 39 W/m² | - |
| 1788022686 | 13.89° C | 97% | 1004 hPa | 0 mm | - | 32 W/m² | - |
| 1788022086 | 13.89° C | 94% | 1004.1 hPa | 0 mm | - | 53 W/m² | - |
| 1788021486 | 14.44° C | 93% | 1004 hPa | 0 mm | - | 106 W/m² | - |
| 1788020886 | 14.44° C | 92% | 1004 hPa | 0 mm | - | 97 W/m² | - |
| 1788020286 | 14.44° C | 92% | 1004 hPa | 0 mm | - | 85 W/m² | - |
| 1788019686 | 14.44° C | 93% | 1003.9 hPa | 0 mm | - | 81 W/m² | - |
| 1788019086 | 14.44° C | 93% | 1003.9 hPa | 0 mm | - | 67 W/m² | - |
| 1788018486 | 14.44° C | 93% | 1003.8 hPa | 0 mm | - | 51 W/m² | - |
| 1788017886 | 15° C | 91% | 1003.9 hPa | 0 mm | - | 69 W/m² | - |
| 1788017286 | 15° C | 89% | 1003.7 hPa | 0 mm | - | 96 W/m² | - |
| 1788016686 | 15° C | 90% | 1003.7 hPa | 0 mm | - | 209 W/m² | - |
| 1788016086 | 15.56° C | 88% | 1003.7 hPa | 0 mm | - | 182 W/m² | - |
| 1788015486 | 16.11° C | 85% | 1003.8 hPa | 0 mm | - | 146 W/m² | - |
| 1788014886 | 16.11° C | 85% | 1003.8 hPa | 0 mm | - | 138 W/m² | - |
* Rain latest hour (hover to see other rain measurements)
** Current wind speed in m/s (hover to see current wind gust speed)